When you browse on this site, cookies collect data to enhance your experience and personalize the content and advertising you see.
Visit our Privacy Policy to learn more. By continuing to use the site, you agree to this use of cookies and data.
  • In Netherlands
  • List of Countries
  • For 7 days
  • Water Temperature
  • Satellite Maps
  • Weather Map
  • Weather Widgets
  • user-avatar
    Login

    Hourly Weather Seyðisfjörður

    Today, 18 January, Friday

    Time Temperature Precipitation Wind Pressure Humidity
    00:00 -4°C° 0.4 mm 2 mps 752 mmHg 96%
    01:00 -4°C° 0.4 mm 2 mps 752 mmHg 96%
    02:00 -4°C° 0.4 mm 2 mps 752 mmHg 96%
    03:00 -4°C° 0.4 mm 2 mps 752 mmHg 95%
    04:00 -2°C° 0.4 mm 1 mps 752 mmHg 95%
    05:00 -2°C° 0 mm 1 mps 752 mmHg 95%
    06:00 -2°C° 0.4 mm 1 mps 752 mmHg 95%
    07:00 -2°C° 0.4 mm 1 mps 752 mmHg 95%
    08:00 -2°C° 0.4 mm 1 mps 752 mmHg 95%
    09:00 -4°C° 0.3 mm 2 mps 753 mmHg 95%
    10:00 -4°C° 0.3 mm 2 mps 753 mmHg 96%
    11:00 -3°C° 0.3 mm 2 mps 753 mmHg 96%
    12:00 -4°C° 0.3 mm 2 mps 753 mmHg 95%
    13:00 -4°C° 0.3 mm 2 mps 753 mmHg 95%
    14:00 -4°C° 0.3 mm 2 mps 753 mmHg 95%
    15:00 -4°C° 0.2 mm 2 mps 753 mmHg 95%
    16:00 -4°C° 0.2 mm 2 mps 753 mmHg 94%
    17:00 -4°C° 0.2 mm 2 mps 753 mmHg 94%
    18:00 -4°C° 0.2 mm 2 mps 753 mmHg 94%
    19:00 -4°C° 0.2 mm 2 mps 753 mmHg 94%
    20:00 -4°C° 0.2 mm 2 mps 753 mmHg 94%
    21:00 -4°C° 0.1 mm 2 mps 753 mmHg 94%
    22:00 -4°C° 0.1 mm 2 mps 753 mmHg 94%
    23:00 -5°C° 0.1 mm 3 mps 753 mmHg 94%

    Tomorrow, 19 January, Saturday

    Time Temperature Precipitation Wind Pressure Humidity
    00:00 -5°C° 0 mm 3 mps 752 mmHg 94%
    01:00 -4°C° 0 mm 3 mps 752 mmHg 95%
    02:00 -4°C° 0 mm 3 mps 752 mmHg 95%
    03:00 -2°C° 0 mm 3 mps 751 mmHg 95%
    04:00 -2°C° 0 mm 3 mps 751 mmHg 95%
    05:00 -2°C° 0 mm 3 mps 751 mmHg 95%
    06:00 -1°C° 0 mm 3 mps 751 mmHg 96%
    07:00 0°C° 0 mm 3 mps 750 mmHg 96%
    08:00 +1°C° 0 mm 3 mps 750 mmHg 96%
    09:00 0°C° 0 mm 4 mps 750 mmHg 95%
    10:00 0°C° 0 mm 4 mps 749 mmHg 95%
    11:00 0°C° 0 mm 5 mps 749 mmHg 94%
    12:00 -1°C° 0 mm 6 mps 748 mmHg 92%
    13:00 -1°C° 0 mm 7 mps 747 mmHg 90%
    14:00 0°C° 0 mm 9 mps 746 mmHg 88%
    15:00 0°C° 0.1 mm 9 mps 746 mmHg 88%
    16:00 0°C° 0.1 mm 10 mps 745 mmHg 88%
    17:00 -1°C° 0.1 mm 11 mps 745 mmHg 88%
    18:00 -1°C° 0.4 mm 12 mps 744 mmHg 89%
    19:00 -1°C° 0.4 mm 12 mps 744 mmHg 90%
    20:00 -1°C° 0.4 mm 12 mps 743 mmHg 91%
    21:00 -2°C° 0.8 mm 11 mps 743 mmHg 89%
    22:00 -3°C° 0.8 mm 9 mps 743 mmHg 86%
    23:00 -3°C° 0.8 mm 7 mps 743 mmHg 84%

    Day after tomorrow, 20 January, Sunday

    Time Temperature Precipitation Wind Pressure Humidity
    00:00 -6°C° 0 mm 7 mps 743 mmHg 80%
    01:00 -6°C° 0 mm 6 mps 744 mmHg 77%
    02:00 -9°C° 0 mm 6 mps 744 mmHg 74%
    03:00 -8°C° 0 mm 5 mps 745 mmHg 73%
    04:00 -8°C° 0 mm 5 mps 745 mmHg 72%
    05:00 -9°C° 0 mm 4 mps 746 mmHg 71%
    06:00 -9°C° 0 mm 4 mps 746 mmHg 72%
    07:00 -8°C° 0 mm 4 mps 747 mmHg 72%
    08:00 -8°C° 0 mm 4 mps 747 mmHg 73%
    09:00 -8°C° 0 mm 4 mps 747 mmHg 72%
    10:00 -9°C° 0 mm 4 mps 747 mmHg 71%
    11:00 -10°C° 0 mm 5 mps 747 mmHg 70%
    12:00 -10°C° 0 mm 5 mps 747 mmHg 69%
    13:00 -10°C° 0 mm 5 mps 748 mmHg 69%
    14:00 -10°C° 0 mm 6 mps 748 mmHg 69%
    15:00 -8°C° 0 mm 5 mps 748 mmHg 69%
    16:00 -8°C° 0 mm 5 mps 748 mmHg 70%
    17:00 -8°C° 0 mm 5 mps 747 mmHg 70%
    18:00 -8°C° 0 mm 4 mps 747 mmHg 71%
    19:00 -8°C° 0 mm 4 mps 747 mmHg 71%
    20:00 -7°C° 0 mm 3 mps 746 mmHg 72%
    21:00 -7°C° 0 mm 4 mps 745 mmHg 76%
    22:00 -5°C° 0 mm 4 mps 743 mmHg 80%
    23:00 -5°C° 0 mm 5 mps 741 mmHg 84%

    21 January, Monday

    Time Temperature Precipitation Wind Pressure Humidity
    00:00 -5°C° 0.7 mm 8 mps 739 mmHg 87%
    01:00 -3°C° 0.7 mm 11 mps 736 mmHg 89%
    02:00 -2°C° 0.7 mm 14 mps 734 mmHg 92%
    03:00 -3°C° 0.2 mm 11 mps 733 mmHg 88%
    04:00 -4°C° 0.2 mm 8 mps 732 mmHg 83%
    05:00 -4°C° 0.2 mm 5 mps 731 mmHg 79%
    06:00 -4°C° 0 mm 4 mps 731 mmHg 80%
    07:00 -4°C° 0 mm 3 mps 730 mmHg 80%
    08:00 -4°C° 0 mm 2 mps 730 mmHg 81%
    09:00 -5°C° 0 mm 2 mps 730 mmHg 80%
    10:00 -5°C° 0 mm 2 mps 730 mmHg 79%
    11:00 -7°C° 0 mm 3 mps 729 mmHg 78%
    12:00 -7°C° 0 mm 3 mps 729 mmHg 74%
    13:00 -8°C° 0 mm 3 mps 729 mmHg 71%
    14:00 -9°C° 0 mm 4 mps 728 mmHg 68%
    15:00 -8°C° 0 mm 3 mps 728 mmHg 70%
    16:00 -8°C° 0 mm 3 mps 727 mmHg 73%
    17:00 -8°C° 0 mm 3 mps 727 mmHg 75%
    18:00 -8°C° 0 mm 3 mps 726 mmHg 77%
    19:00 -7°C° 0 mm 3 mps 726 mmHg 79%
    20:00 -7°C° 0 mm 3 mps 725 mmHg 81%
    21:00 -7°C° 0 mm 3 mps 725 mmHg 80%
    22:00 -6°C° 0 mm 3 mps 725 mmHg 79%
    23:00 -5°C° 0 mm 2 mps 724 mmHg 78%

    22 January, Tuesday

    Time Temperature Precipitation Wind Pressure Humidity
    00:00 -5°C° 0 mm 2 mps 724 mmHg 77%
    01:00 -5°C° 0 mm 2 mps 724 mmHg 77%
    02:00 -5°C° 0 mm 2 mps 724 mmHg 77%
    03:00 -4°C° 0 mm 1 mps 725 mmHg 77%
    04:00 -4°C° 0 mm 1 mps 725 mmHg 77%
    05:00 -6°C° 0 mm 1 mps 725 mmHg 77%
    06:00 -6°C° 0 mm 1 mps 726 mmHg 77%
    07:00 -6°C° 0 mm 1 mps 727 mmHg 77%
    08:00 -6°C° 0 mm 1 mps 728 mmHg 77%
    09:00 -7°C° 0 mm 2 mps 729 mmHg 78%
    10:00 -8°C° 0 mm 3 mps 730 mmHg 78%
    11:00 -8°C° 0 mm 3 mps 731 mmHg 79%
    12:00 -8°C° 0 mm 3 mps 733 mmHg 80%
    13:00 -9°C° 0 mm 3 mps 734 mmHg 81%
    14:00 -9°C° 0 mm 3 mps 735 mmHg 83%
    15:00 -9°C° 0 mm 3 mps 736 mmHg 83%
    16:00 -9°C° 0 mm 3 mps 738 mmHg 84%
    17:00 -9°C° 0 mm 3 mps 739 mmHg 85%
    18:00 -9°C° 0 mm 3 mps 741 mmHg 85%
    19:00 -9°C° 0 mm 3 mps 742 mmHg 85%
    20:00 -9°C° 0 mm 3 mps 743 mmHg 85%
    21:00 -9°C° 0 mm 3 mps 745 mmHg 85%
    22:00 -9°C° 0 mm 3 mps 746 mmHg 85%
    23:00 -9°C° 0 mm 3 mps 747 mmHg 85%

    23 January, Wednesday

    Time Temperature Precipitation Wind Pressure Humidity
    00:00 -9°C° 0 mm 3 mps 748 mmHg 86%
    01:00 -8°C° 0 mm 3 mps 749 mmHg 87%
    02:00 -8°C° 0 mm 3 mps 750 mmHg 88%
    03:00 -8°C° 0 mm 3 mps 751 mmHg 89%
    04:00 -8°C° 0 mm 3 mps 752 mmHg 90%
    05:00 -7°C° 0 mm 3 mps 753 mmHg 91%
    06:00 -7°C° 0.1 mm 3 mps 754 mmHg 91%
    07:00 -7°C° 0.1 mm 3 mps 755 mmHg 91%
    08:00 -7°C° 0.1 mm 3 mps 756 mmHg 91%
    09:00 -6°C° 0.3 mm 3 mps 757 mmHg 92%
    10:00 -4°C° 0.3 mm 2 mps 758 mmHg 93%
    11:00 -4°C° 0.3 mm 2 mps 758 mmHg 94%
    12:00 -4°C° 0.1 mm 2 mps 759 mmHg 93%
    13:00 -2°C° 0.1 mm 1 mps 759 mmHg 92%
    14:00 -2°C° 0.1 mm 1 mps 760 mmHg 92%
    15:00 -2°C° 0 mm 1 mps 760 mmHg 92%
    16:00 -2°C° 0 mm 1 mps 760 mmHg 91%
    17:00 -3°C° 0 mm 1 mps 761 mmHg 91%
    18:00 -3°C° 0 mm 1 mps 761 mmHg 92%
    19:00 -2°C° 0 mm 1 mps 761 mmHg 92%
    20:00 -4°C° 0 mm 2 mps 761 mmHg 92%
    21:00 -4°C° 0 mm 2 mps 761 mmHg 92%
    22:00 -4°C° 0 mm 2 mps 761 mmHg 92%
    23:00 -5°C° 0 mm 3 mps 761 mmHg 92%
    Show more